Starlink 3073

operational
NORAD ID: 49135 Int'l Des: 2021-082 Owner: SPXS Country: US Constellation: starlink
LEOCIRCULAR

Starlink 3073について

説明を読み込み中...

リアルタイム位置

3D地球を読み込み中...

次回通過

高度履歴

Altitude vs Time

uPlot chart will show altitude changes over time

軌道要素

1 49135U 21082F 26036.24311190 -.00001849 00000-0 -14720-3 0 9994
2 49135 70.0009 336.2459 0002005 271.1035 88.9894 14.98345429242113
Epoch: Feb 5, 2026 • Age: 13 hours

現在のステータス

高度 584.2 km
速度 7.57 km/s
衛星直下点 -35.97°S, 93.44°W
打ち上げ日 Sep 14, 2021
運用期間 4.3 years
タイプ internet

技術仕様

分類 Payload
質量 297.00 kg
乾燥質量 275.00 kg
総質量 297.00 kg
長さ 0.20 m
直径 2.80 m
スパン 9.00 m
形状 Box + pan
製造者 SPXS
バスタイプ Starlink
フェーズステータス In Orbit
所有者/国 SPXS/US

大規模コンステレーション

Loading constellations...